Hourly Data Report for January 04, 2020

SATURNA ISLAND CS
BRITISH COLUMBIA
Current Station Operator: ECCC - MSC

48°47'02.067" N
123°02'41.082" W
24.40 m
1017101
71473
WEZ

Download Data

Hourly Data (January 2020)
Hourly Data Report for January 4, 2020
TIME
LST
Temp Definition
°C
Dew Point Definition
°C
Rel Hum Definition
%
Precip. Amount Definition
mm

Wind Dir Definition
10's deg

Wind Spd Definition
km/h
Visibility Definition
km
Stn Press Definition
kPa
Hmdx Definition


Wind Chill Definition


Weather Definition


00:00 7.8 6.6 92 0.0 23 26   100.30     LegendNANA
01:00 7.6 4.8 83 0.0 23 36   100.38     LegendNANA
02:00 7.5 3.9 78 0.0 24 20   100.54     LegendNANA
03:00 7.3 2.2 70 0.0 27 12   100.68     LegendNANA
04:00 6.3 1.1 69 0.0 26 15   100.86     LegendNANA
05:00 6.2 1.3 71 0.0 27 11   101.04     LegendNANA
06:00 6.3 1.4 71 0.0 26 12   101.23     LegendNANA
07:00 5.4 1.8 77 0.0 24 11   101.41     LegendNANA
08:00 5.7 2.6 81 0.0 23 24   101.54     LegendNANA
09:00 6.1 2.1 76 0.0 25 16   101.68     LegendNANA
10:00 5.8 2.1 77 0.0 26 5   101.85     LegendNANA
11:00 8.1 2.9 70 0.0 23 28   101.92     LegendNANA
12:00 7.3 3.8 79 0.0 22 26   101.95     LegendNANA
13:00 7.6 3.6 76 0.0 22 31   102.02     LegendNANA
14:00 7.5 3.8 77 0.0 21 25   102.06     LegendNANA
15:00 5.9 4.0 88 1.2 22 20   102.14     LegendNANA
16:00 6.4 4.5 88 0.6 19 30   102.14     LegendNANA
17:00 7.1 4.6 84 0.0 19 27   102.16     LegendNANA
18:00 7.4 4.9 84 0.2 17 38   102.12     LegendNANA
19:00 7.1 4.9 86 0.2 19 38   102.16     LegendNANA
20:00 7.3 4.7 84 0.0 17 44   102.14     LegendNANA
21:00 7.3 5.0 85 0.0 17 36   102.15     LegendNANA
22:00 7.3 4.7 84 0.0 18 37   102.14     LegendNANA
23:00 7.3 4.6 83 0.0 18 40   102.09     LegendNANA

Notes on Data Quality.

Legend

  • E = Estimated
  • M = Missing
  • NA = Not Available*
  • [empty] = Indicates an unobserved value
Date modified: